TimeEDT,TemperatureF,Dew PointF,Humidity,Sea Level PressureIn,VisibilityMPH,Wind Direction,Wind SpeedMPH,Gust SpeedMPH,PrecipitationIn,Events,Conditions,WindDirDegrees,DateUTC
12:36 AM,53.6,51.8,94,30.06,2.5,ESE,4.6,-,0.01,Rain,Light Rain,110,2012-10-10 04:36:00
12:47 AM,53.6,51.8,94,30.06,2.0,Calm,Calm,-,0.01,Rain,Light Rain,0,2012-10-10 04:47:00
12:56 AM,53.1,52.0,96,30.06,2.5,Calm,Calm,-,0.01,Rain,Light Rain,0,2012-10-10 04:56:00
1:09 AM,53.6,51.8,94,30.06,3.0,Calm,Calm,-,0.01,,Overcast,0,2012-10-10 05:09:00
1:22 AM,53.6,51.8,94,30.06,2.5,Calm,Calm,-,0.01,,Overcast,0,2012-10-10 05:22:00
1:39 AM,53.6,51.8,94,30.05,3.0,Calm,Calm,-,0.01,,Overcast,0,2012-10-10 05:39:00
1:56 AM,53.1,52.0,96,30.05,3.0,Calm,Calm,-,0.01,,Overcast,0,2012-10-10 05:56:00
2:56 AM,53.1,52.0,96,30.03,4.0,Calm,Calm,-,N/A,,Overcast,0,2012-10-10 06:56:00
3:56 AM,54.0,52.0,93,30.01,4.0,SE,3.5,-,N/A,,Overcast,130,2012-10-10 07:56:00
4:56 AM,54.0,52.0,93,29.99,5.0,Calm,Calm,-,N/A,,Overcast,0,2012-10-10 08:56:00
5:56 AM,54.0,53.1,97,30.00,4.0,Calm,Calm,-,N/A,,Overcast,0,2012-10-10 09:56:00
6:47 AM,53.6,51.8,94,29.99,2.5,West,4.6,-,N/A,,Overcast,280,2012-10-10 10:47:00
6:56 AM,53.1,52.0,96,29.99,1.8,West,3.5,-,N/A,,Overcast,270,2012-10-10 10:56:00
7:33 AM,53.6,51.8,94,29.98,1.0,West,3.5,-,N/A,,Overcast,280,2012-10-10 11:33:00
7:56 AM,53.1,52.0,96,29.99,1.2,West,3.5,-,N/A,,Overcast,270,2012-10-10 11:56:00
8:03 AM,53.6,51.8,94,29.99,1.8,West,3.5,-,N/A,,Overcast,260,2012-10-10 12:03:00
8:09 AM,53.6,51.8,94,29.99,2.0,West,3.5,-,N/A,,Overcast,280,2012-10-10 12:09:00
8:50 AM,53.6,51.8,94,29.99,3.0,West,5.8,-,N/A,,Overcast,260,2012-10-10 12:50:00
8:56 AM,54.0,52.0,93,29.99,3.0,West,5.8,-,N/A,,Overcast,260,2012-10-10 12:56:00
9:04 AM,53.6,51.8,94,29.99,4.0,West,6.9,-,N/A,,Overcast,270,2012-10-10 13:04:00
9:56 AM,55.9,51.1,84,29.98,6.0,West,4.6,-,N/A,,Haze,280,2012-10-10 13:56:00
10:56 AM,59.0,50.0,72,29.96,9.0,West,6.9,-,N/A,,Partly Cloudy,280,2012-10-10 14:56:00
11:56 AM,61.0,46.0,58,29.95,10.0,WSW,9.2,-,N/A,,Mostly Cloudy,250,2012-10-10 15:56:00
12:56 PM,61.0,45.0,56,29.93,10.0,WNW,5.8,-,N/A,,Overcast,290,2012-10-10 16:56:00
1:56 PM,61.0,44.1,54,29.89,10.0,WSW,6.9,-,N/A,,Overcast,240,2012-10-10 17:56:00
2:56 PM,64.9,44.1,47,29.87,10.0,West,9.2,19.6,N/A,,Scattered Clouds,260,2012-10-10 18:56:00
3:56 PM,66.0,45.0,47,29.85,10.0,West,12.7,20.7,N/A,,Mostly Cloudy,270,2012-10-10 19:56:00
4:56 PM,64.0,46.0,52,29.85,10.0,West,5.8,-,N/A,,Overcast,270,2012-10-10 20:56:00
5:56 PM,62.1,45.0,53,29.89,10.0,NW,18.4,24.2,N/A,,Overcast,310,2012-10-10 21:56:00
6:56 PM,59.0,44.1,58,29.94,10.0,WNW,11.5,24.2,N/A,,Overcast,300,2012-10-10 22:56:00
7:56 PM,55.0,42.1,62,29.97,10.0,West,10.4,-,N/A,,Clear,280,2012-10-10 23:56:00
8:56 PM,54.0,37.0,53,30.00,10.0,West,10.4,19.6,N/A,,Clear,280,2012-10-11 00:56:00
9:56 PM,52.0,37.9,59,30.04,10.0,West,9.2,-,N/A,,Clear,280,2012-10-11 01:56:00
10:56 PM,48.9,37.0,64,30.06,10.0,West,8.1,-,N/A,,Clear,260,2012-10-11 02:56:00
11:56 PM,48.0,37.0,66,30.07,10.0,West,8.1,-,N/A,,Clear,260,2012-10-11 03:56:00